Simultaneous Nadir Overpasses (SNOs) Predictions

Prediction of SNOs between METOP-B and NOAA-19 Satellite Orbit:

Table of predicted SNOs for the next 14.0 days since TLE Epoch: 8/7/2021
Index Date (METOP-B) Time (METOP-B) Lat,Lon (METOP-B) SZA (METOP-B ) Date (NOAA-19) Time (NOAA-19) Lat,Lon (NOAA-19) SZA (NOAA-19 ) Distance(km) Time Diff (sec)
1 08/17/2021 00:40:03 -80.61, 19.87 111.62 08/17/2021 00:38:53 -80.59, 19.81 111.67 2.25 70
2 08/17/2021 01:30:44 80.61,-172.88 68.38 08/17/2021 01:29:49 80.60,-173.04 68.35 3.05 55
3 08/17/2021 02:21:25 -80.60, -5.60 111.62 08/17/2021 02:20:53 -80.59, -5.60 111.64 1.27 32
4 08/17/2021 03:12:06 80.60, 161.65 68.39 08/17/2021 03:11:49 80.59, 161.56 68.37 1.62 17
5 08/17/2021 04:02:47 -80.59, -31.08 111.61 08/17/2021 04:02:53 -80.59, -31.01 111.61 1.44 6
6 08/17/2021 04:53:28 80.59, 136.17 68.39 08/17/2021 04:53:49 80.59, 136.16 68.40 0.51 21
7 08/17/2021 05:44:09 -80.58, -56.55 111.61 08/17/2021 05:44:53 -80.58, -56.41 111.58 2.54 44



Historial Predications of SNOs between METOP-B and NOAA-19
